Location: Middelsbur
(53.6609°N, 7.5020°E)
Time: 13:22:58
(UTC+00:00)

NOSS 3-4 (A) - Pass Details

Date: 06 July 2020
Orbit: 892 x 1320 km, 63.4° (Epoch: 12 July)

Event Time Altitude Azimuth Distance (km) Brightness Sun altitude
Rises 21:19:06 0° 311° (NW) 3,749 8.2 -8.3°
Reaches altitude 10° 21:21:36 10° 311° (NW) 2,851 7.3 -8.5°
Maximum altitude 21:28:24 90° 233° (SW) 1,130 3.9 -9.0°
Drops below altitude 10° 21:35:59 10° 135° (SE) 3,154 5.6 -9.6°
Enters shadow 21:36:04 10° 135° (SE) 3,181 5.6 -9.6°
